DW1057 Weather Reports


time (UTC)temp
C
wind
direction
speed
KPH
gust
KPH
rain 1hr
cm
rain 24hr
cm
rain mn
cm
humidity
%
barometer
mb
20260506073021 19 330 0.0 6.4 0.00 0.00 0.00 74 1008.2
20260506071518 19 137 0.0 16.1 0.00 0.00 0.00 73 1008.3
20260506061515 20 80 0.0 4.8 0.00 0.00 0.00 69 1008.9
20260506044506 20 62 1.6 8.0 0.00 0.00 0.00 63 1009.7
20260506043005 20 232 1.6 8.0 0.00 0.00 0.00 63 1009.6
20260506041607 20 294 0.0 6.4 0.00 0.00 0.00 62 1009.6
20260506040106 20 67 0.0 12.9 0.00 0.00 0.00 61 1009.7
20260506034605 20 247 0.0 6.4 0.00 0.00 0.00 62 1009.6
20260506033057 19 254 1.6 11.3 0.00 0.00 0.00 61 1010.0
20260506031557 19 213 0.0 3.2 0.00 0.00 0.00 61 1010.2
20260506030058 19 249 0.0 6.4 0.00 0.00 0.00 61 1009.9
20260506024600 19 234 0.0 4.8 0.00 0.00 0.00 62 1010.0
20260506023055 19 130 0.0 4.8 0.00 0.00 0.00 62 1010.3
20260506021603 19 15 0.0 3.2 0.00 0.00 0.00 61 1010.0
20260506020054 19 16 0.0 3.2 0.00 0.00 0.00 61 1009.7
20260506014554 19 97 1.6 8.0 0.00 0.00 0.00 61 1009.6
20260506013102 19 280 0.0 6.4 0.00 0.00 0.00 61 1009.4
20260506011604 19 14 1.6 8.0 0.00 0.00 0.00 60 1009.1
20260506010053 19 295 0.0 4.8 0.00 0.00 0.00 59 1009.1
20260506004552 20 253 1.6 4.8 0.00 0.00 0.00 57 1009.2
20260506003051 20 264 0.0 9.7 0.00 0.00 0.00 56 1009.1
20260506001552 20 323 0.0 6.4 0.00 0.00 0.00 54 1009.3
20260506000050 20 242 0.0 8.0 0.00 0.00 0.00 53 1009.4
20260505234558 20 253 0.0 3.2 0.00 0.00 0.00 53 1009.6
20260505233049 19 302 0.0 6.4 0.00 0.00 0.00 53 1009.4
20260505231603 20 197 0.0 8.0 0.00 0.00 0.00 55 1009.7
20260505230051 20 288 0.0 9.7 0.00 0.00 0.00 51 1009.5
20260505224546 21 77 0.0 8.0 0.00 0.00 0.00 49 1009.3
20260505223047 20 211 0.0 6.4 0.00 0.00 0.00 49 1009.6
20260505221553 19 89 0.0 4.8 0.00 0.00 0.00 52 1009.4
20260505220044 19 217 0.0 4.8 0.00 0.00 0.00 55 1009.7
20260505214603 19 61 0.0 3.2 0.00 0.00 0.00 59 1009.3
20260505213044 19 7 0.0 3.2 0.00 0.00 0.00 59 1009.3
20260505211541 20 107 0.0 6.4 0.00 0.00 0.00 55 1009.8
20260505210042 20 240 1.6 4.8 0.00 0.00 0.00 50 1010.0
20260505204538 21 249 0.0 6.4 0.00 0.00 0.00 46 1010.1
20260505203038 21 319 0.0 8.0 0.00 0.00 0.00 44 1010.1
20260505201536 22 348 1.6 9.7 0.00 0.00 0.00 44 1010.3
20260505200042 22 64 1.6 4.8 0.00 0.00 0.00 41 1010.5
20260505194533 23 141 0.0 14.5 0.00 0.00 0.00 41 1010.8
20260505193035 23 99 0.0 9.7 0.00 0.00 0.00 39 1010.8
20260505191532 23 43 1.6 11.3 0.00 0.00 0.00 38 1011.0
20260505190036 23 225 3.2 9.7 0.00 0.00 0.00 39 1011.0
20260505184529 23 69 1.6 12.9 0.00 0.00 0.00 45 1011.0
20260505183031 22 232 1.6 6.4 0.00 0.00 0.00 43 1011.0
20260505181526 22 126 3.2 16.1 0.00 0.00 0.00 41 1011.4
20260505180026 22 193 1.6 16.1 0.00 0.00 0.00 43 1011.8
20260505174523 22 38 1.6 14.5 0.00 0.00 0.00 45 1011.7
20260505173022 22 157 1.6 12.9 0.00 0.00 0.00 48 1011.9
20260505171521 21 259 3.2 6.4 0.00 0.00 0.00 47 1012.0
20260505170018 21 56 0.0 4.8 0.00 0.00 0.00 53 1012.5
20260505164517 21 9 1.6 11.3 0.00 0.00 0.00 53 1012.6
20260505163018 20 43 1.6 8.0 0.00 0.00 0.00 57 1012.6
20260505161517 20 245 0.0 6.4 0.00 0.00 0.00 61 1012.8
20260505153006 18 33 0.0 8.0 0.00 0.00 0.00 66 1012.9
20260505151505 18 57 0.0 4.8 0.00 0.00 0.00 66 1012.9
20260505124607 15 186 0.0 4.8 0.00 0.00 0.00 66 1012.7
20260505123056 15 181 0.0 4.8 0.00 0.00 0.00 65 1012.3
20260505121555 15 277 0.0 4.8 0.00 0.00 0.00 64 1012.1
20260505120054 15 245 0.0 6.4 0.00 0.00 0.00 62 1012.0
20260505114557 15 239 0.0 4.8 0.00 0.00 0.00 61 1012.0
20260505113059 15 151 0.0 0.0 0.00 0.00 0.00 59 1011.8
20260505111548 15 210 0.0 3.2 0.00 0.00 0.00 59 1011.7
20260505101552 16 179 0.0 3.2 0.00 0.00 0.00 57 1011.1
20260505100044 15 212 0.0 3.2 0.00 0.00 0.00 57 1011.1
20260505094543 16 76 0.0 3.2 0.00 0.00 0.00 57 1010.8
20260505093050 16 265 0.0 3.2 0.00 0.00 0.00 56 1011.0
20260505091551 16 29 0.0 8.0 0.00 0.00 0.00 56 1011.1
20260505090042 16 1 0.0 3.2 0.00 0.00 0.00 56 1010.9
20260505084542 16 254 0.0 3.2 0.00 0.00 0.00 57 1010.9
20260505083038 16 38 0.0 3.2 0.00 0.00 0.00 56 1011.1
20260505081536 16 261 0.0 3.2 0.00 0.00 0.00 54 1011.2